Location: Excel
(51.3833°N, 110.5667°W)
Time: 13:06:09
(UTC+00:00)

Envisat - Pass Details

Date: 08 December 2021
Orbit: 764 x 766 km, 98.2° (Epoch: 28 January)

Event Time Altitude Azimuth Distance (km) Brightness Sun altitude
Rises 11:22:37 0° 24° (NNE) 3,247 6.6 -34.9°
Reaches altitude 10° 11:25:23 10° 38° (NE) 2,315 5.9 -34.4°
Maximum altitude 11:29:26 23° 91° (E) 1,578 5.2 -33.8°
Drops below altitude 10° 11:33:27 10° 144° (SE) 2,300 5.8 -33.2°
Sets 11:36:11 0° 158° (SSE) 3,220 6.4 -32.8°
